TimeEDT,TemperatureF,Dew PointF,Humidity,Sea Level PressureIn,VisibilityMPH,Wind Direction,Wind SpeedMPH,Gust SpeedMPH,PrecipitationIn,Events,Conditions,WindDirDegrees,DateUTC
12:53 AM,61.0,55.9,83,30.15,10.0,Calm,Calm,-,N/A,,Clear,0,2013-06-21 04:53:00
1:53 AM,60.1,55.9,86,30.14,10.0,Calm,Calm,-,N/A,,Clear,0,2013-06-21 05:53:00
2:53 AM,59.0,55.9,90,30.14,10.0,Calm,Calm,-,N/A,,Clear,0,2013-06-21 06:53:00
3:53 AM,60.1,55.0,83,30.12,10.0,Calm,Calm,-,N/A,,Clear,0,2013-06-21 07:53:00
4:53 AM,63.0,54.0,72,30.09,10.0,South,3.5,-,N/A,,Partly Cloudy,180,2013-06-21 08:53:00
5:53 AM,64.0,54.0,70,30.09,10.0,South,3.5,-,N/A,,Partly Cloudy,190,2013-06-21 09:53:00
6:53 AM,64.0,53.1,67,30.11,10.0,South,3.5,-,N/A,,Overcast,190,2013-06-21 10:53:00
7:53 AM,66.9,54.0,63,30.10,10.0,Variable,4.6,-,N/A,,Overcast,0,2013-06-21 11:53:00
8:53 AM,70.0,55.0,59,30.07,10.0,Calm,Calm,-,N/A,,Overcast,0,2013-06-21 12:53:00
9:53 AM,73.9,59.0,59,30.07,10.0,SSE,3.5,-,N/A,,Overcast,160,2013-06-21 13:53:00
10:53 AM,75.9,63.0,64,30.08,10.0,South,4.6,-,N/A,,Overcast,190,2013-06-21 14:53:00
11:53 AM,79.0,63.0,58,30.07,10.0,SSW,8.1,-,N/A,,Overcast,200,2013-06-21 15:53:00
12:53 PM,82.0,63.0,52,30.04,10.0,SSW,8.1,18.4,N/A,,Overcast,210,2013-06-21 16:53:00
1:53 PM,81.0,63.0,54,30.01,10.0,SSW,10.4,25.3,N/A,,Overcast,200,2013-06-21 17:53:00
2:53 PM,82.0,62.1,51,29.92,10.0,SSE,13.8,25.3,N/A,,Overcast,160,2013-06-21 18:53:00
3:53 PM,82.0,63.0,52,29.94,10.0,South,10.4,21.9,N/A,,Overcast,180,2013-06-21 19:53:00
4:53 PM,84.0,64.0,51,29.93,10.0,SW,9.2,17.3,N/A,,Mostly Cloudy,220,2013-06-21 20:53:00
5:53 PM,84.0,64.0,51,29.92,10.0,SSW,12.7,25.3,N/A,,Mostly Cloudy,200,2013-06-21 21:53:00
6:53 PM,84.9,63.0,48,29.92,10.0,SW,18.4,29.9,N/A,,Mostly Cloudy,230,2013-06-21 22:53:00
7:53 PM,82.9,59.0,44,29.93,10.0,SW,13.8,20.7,N/A,,Scattered Clouds,220,2013-06-21 23:53:00
8:53 PM,80.1,59.0,48,29.94,10.0,WSW,8.1,-,N/A,,Scattered Clouds,250,2013-06-22 00:53:00
9:53 PM,75.9,60.1,58,29.96,10.0,WSW,11.5,18.4,N/A,,Scattered Clouds,250,2013-06-22 01:53:00
10:53 PM,73.9,61.0,64,29.99,10.0,SW,5.8,-,N/A,,Overcast,230,2013-06-22 02:53:00
11:53 PM,72.0,61.0,68,29.99,10.0,WSW,6.9,-,N/A,,Overcast,250,2013-06-22 03:53:00